Location: Newark
(25.4800°N, 85.7200°E)
Time: 11:05:42
(UTC+00:00)

Vanguard 1 Rocket - Pass Details

Date: 19 August 2019
Orbit: 652 x 4225 km, 34.3° (Epoch: 15 September)

Event Time Altitude Azimuth Distance (km) Brightness Sun altitude
Rises 19:48:32 0° 244° (WSW) 3,112 - -46.3°
Reaches altitude 10° 19:50:56 10° 244° (WSW) 2,081 - -46.0°
Maximum altitude 19:55:21 90° 173° (S) 661 - -45.4°
Drops below altitude 10° 20:00:19 10° 65° (ENE) 2,338 - -44.8°
Exits shadow 20:00:35 - 65° (ENE) 2,450 10.1 -44.8°
Sets 20:03:10 0° 66° (ENE) 3,542 11.1 -44.4°
